Flag Weather past 2 weeks in Gloucester, England, United Kingdom

Now
54 °F

Passing clouds.


Feels Like: 52 °F
Forecast: N/A
Wind: 7 mph from Northeast

Location: Staverton Private

Current Time: Nov 28, 2014 at 6:30:25 PM

Latest Report: Nov 28, 2014 at 5:50 PM


Visibility: 5 mi

Pressure: 29.65 "Hg

Humidity: 88%

Dew point: 50 °F

Location of GloucesterLocation

Historic Weather in Gloucester — Graph

°F

Gloucester temperature yesterday

Maximum temperature yesterday: 50 °F (at 12:20 PM)
Minimum temperature yesterday: 45 °F (at 6:50 AM)
Average temperature yesterday: 47 °F

Past Weeks' High & Low Weather Summary

 TemperatureHumidityPressure
High61 °F (Nov 22, 11:50 AM)100% (Nov 15, 8:20 AM)30.36 "Hg (Nov 15, 8:20 AM)
Low27 °F (Nov 25, 6:50 AM)67% (Nov 14, 1:20 PM)29.39 "Hg (Nov 14, 7:50 AM)
Average48 °F91%29.84 "Hg
* Reported Nov 13 5:50 PM — Nov 28 5:20 PM, Gloucester, Weather by CustomWeather, © 2014

Note: Actual official high and low records may vary slightly from our data, if they occured in-between our weather recording intervals... More about our weather records

Advertising

Gloucester weather history for previous 24 hours

 ConditionsComfort  
Time TempWeatherWind HumidityBarometerVisibility
5:20 PM
Nov 28
54 °FPassing clouds.9 mph88%29.65 "Hg5 mi
4:50 PM54 °FPassing clouds.8 mph88%29.62 "Hg5 mi
4:20 PM54 °FPartly cloudy.9 mph88%29.62 "Hg5 mi
3:50 PM54 °FBroken clouds.10 mph88%29.62 "Hg5 mi
3:20 PM55 °FBroken clouds.8 mph82%29.62 "Hg5 mi
2:50 PM55 °FBroken clouds.9 mph82%29.59 "Hg5 mi
2:20 PM55 °FBroken clouds.12 mph82%29.59 "Hg5 mi
1:50 PM55 °FBroken clouds.9 mph82%29.59 "Hg5 mi
1:20 PM55 °FBroken clouds.12 mph82%29.59 "Hg5 mi
12:50 PM55 °FScattered clouds.13 mph82%29.59 "HgN/A
12:20 PM55 °FScattered showers. Scattered clouds.13 mph82%29.59 "HgN/A
11:50 AM55 °FScattered showers. Scattered clouds.9 mph82%29.59 "HgN/A
11:20 AM55 °FScattered showers. Scattered clouds.12 mph82%29.59 "HgN/A
10:50 AM55 °FScattered showers. Scattered clouds.8 mph77%29.59 "HgN/A
10:20 AM55 °FScattered clouds.2 mph77%29.59 "HgN/A
9:50 AM54 °FScattered clouds.2 mph82%29.59 "HgN/A
9:20 AM52 °FScattered clouds.3 mph88%29.59 "HgN/A
8:50 AM52 °FScattered clouds.12 mph82%29.56 "HgN/A
8:20 AM52 °FScattered clouds.8 mph82%29.56 "HgN/A
6:50 PM
Nov 27
48 °FPassing clouds.8 mph87%29.56 "HgN/A
6:20 PM48 °FPassing clouds.8 mph87%29.56 "HgN/A
Weather by CustomWeather, © 2014

See weather overviewHow to use our weather pages